Tracking 24122 objects as of 7-Dec-2021
HD Live streaming from Space Station
objects crossing your sky now

PEGASUS DEB

Track PEGASUS DEB now!
10-day predictions


NORAD ID: 39316
Int'l Code: 1994-029AFB
Perigee: 504.0 km
Apogee: 593.6 km
Inclination: 82.0 °
Period: 95.5 minutes
Semi major axis: 6919 km
RCS: 0.0019 m2 (small)
Launch date: May 19, 1994
Source: United States (US)
Launch site: AIR FORCE WESTERN TEST RANGE (AFWTR)

Note: This is SATELLITE DEBRIS
aabbcc
Your satellite tracking list
Your tracking list is empty




NASA's NSSDC Master Catalog

Two Line Element Set (TLE):
1 39316U 94029AFB 21339.71222854  .00004752  00000-0  29083-3 0  9998
2 39316  82.0111 322.6266 0064736  59.4623 301.2971 15.08206181967556
Source of the keplerian elements: AFSPC